Vertical_Velocity
-1 -1 -1 -0 -0 0 1 -1 -0 1 1 1 1 2 0 -1 0 -1 1 -5 -4 -1 -3 -2 -1 -2 -1 -0 0 4 -1 -1 -0 -1 -1 -1 1 0 -1 -3 2 2 1 -4 -0
-0 -1 -1 -0 -1 -1 1 2 -1 -1 0 1 1 1 2 1 -2 -2 2 0 -1 -2 -2 -1 -1 -0 -2 -1 1 0 -1 0 1 0 0 -1 -2 -1 -1 -3 1 1 -0 -1 1
0 0 -1 -1 -0 0 -1 1 1 -0 -0 1 1 2 0 1 -0 -0 -0 -2 -0 -1 -2 -2 -3 0 -1 -2 2 -1 -1 0 0 1 -1 -1 -2 2 3 -2 1 1 -2 -1 -1
1 1 0 -1 -1 -2 -1 0 1 0 0 0 3 0 3 -1 -1 -1 1 -1 -1 -2 -1 -1 -2 -2 -1 1 -1 -3 -1 1 1 1 -1 -0 -1 -0 -1 -2 -1 -0 0 -1 1
-1 -1 -1 1 -0 -0 -2 -1 -0 1 -0 1 2 3 2 4 -7 2 -1 -2 -1 -1 2 3 0 1 -1 1 -0 -2 -4 1 -0 1 1 -2 -1 -2 -0 -1 -0 -1 3 -2 -1
-2 -1 -1 -1 -1 -1 -0 2 -1 -1 1 1 1 1 2 -2 6 -1 1 -0 -2 -3 -0 -0 2 1 -0 -0 -1 -2 -0 -1 -1 0 -0 -2 -2 -0 2 -0 -0 -1 2 1 -1
-1 -1 -2 -2 -1 -2 -1 1 -0 1 -1 -0 -1 1 2 -13 4 0 1 1 1 -1 -1 -2 -1 1 2 0 -1 0 1 -1 1 -1 1 -1 -2 -3 -2 3 -1 0 -1 1 -0
-2 -2 -2 -1 -0 -4 -3 0 1 -2 0 0 -1 1 -4 2 2 1 3 1 -0 1 -2 -7 -2 -2 -1 2 -1 -2 -1 -1 0 1 2 -2 -1 -1 -0 -2 1 -0 2 -0 -0
-3 -0 -4 -1 -3 -3 -0 -5 2 1 -3 -2 0 1 -3 -1 4 3 3 1 0 -1 -2 -2 -1 -4 -3 1 1 -3 1 -0 -2 1 -2 -3 -1 -1 -0 1 -2 1 1 1 2
3 1 -5 -2 -3 -3 -2 -1 -2 2 -1 -2 -2 -1 -2 -1 4 -1 0 1 1 -0 -3 -3 -2 -0 -3 -7 -1 5 -2 -1 0 2 -1 -1 -4 -1 -1 -2 -1 -1 1 -0 -1
-1 -0 -2 2 -5 -4 -3 -3 -2 1 -2 -1 -1 0 -5 1 -2 5 1 -1 1 -0 -2 -1 -1 0 6 8 5 6 2 7 0 2 -3 1 -2 -4 -2 -2 0 -3 -1 -2 -1
1 0 -5 -2 -5 -3 1 -5 -5 -2 10 -2 -5 6 -7 -1 2 2 3 2 0 3 0 -4 -2 7 3 -0 6 6 -3 4 -2 -2 1 -0 0 -6 -4 -1 -1 2 -2 -2 -4
-4 3 -2 -2 -6 -6 -2 3 -4 -5 -0 -7 -10 -2 3 -8 3 -3 1 5 0 2 2 -1 17 -0 0 -1 -3 2 -1 -1 9 -0 -4 -0 -1 -3 -4 -2 -0 -2 0 -0 -1
-5 4 -3 -7 -5 -3 0 -3 -4 1 -8 17 -1 -12 -6 1 4 -10 3 -0 4 2 6 -0 6 -1 -1 -1 0 -2 7 6 2 -1 4 -5 -0 -3 -1 0 -1 0 0 -1 1
-1 -1 -2 2 -10 -4 -3 -2 -5 2 -16 -2 -5 -3 -6 -1 3 -5 -4 -2 5 5 -3 9 5 2 -5 6 1 11 7 9 8 2 1 -2 -7 4 -5 -4 -0 2 -1 -1 1
-1 -4 8 -4 -9 1 -4 -1 -4 -5 1 -2 -4 -1 0 -4 4 -5 -1 -1 8 1 3 7 7 -0 9 -1 2 2 5 5 1 1 -11 4 -3 5 -10 8 -1 -1 1 3 -2
-1 -5 3 3 -4 -3 -1 -4 -10 -16 1 3 -2 1 -1 -1 -0 -2 -7 -2 -2 -2 -7 1 -2 7 6 1 3 -1 2 -3 0 -4 -15 3 -16 17 2 0 3 1 -1 2 3
-0 -1 -7 8 2 -6 -4 -7 -17 0 15 11 2 -3 2 -3 -3 -1 -5 -6 -8 -1 2 7 -13 4 5 1 6 -8 2 -3 -2 -8 -1 5 -17 4 11 6 0 -1 0 -1 -6
-0 -7 3 0 5 1 -9 -20 10 16 1 14 -2 -4 -2 -3 2 -3 -2 -6 -2 3 5 -5 -17 8 7 10 -3 -4 -27 15 2 -2 -11 2 -9 -0 -2 -2 -1 -1 2 1 -2
4 -1 -5 2 3 -0 -12 -1 -2 5 8 6 4 -7 -1 -0 1 -2 2 5 1 0 4 4 -2 3 17 7 -1 -4 28 4 -7 -5 -9 -7 -11 -2 -0 5 1 -2 -3 0 1
1 10 3 -2 4 -0 -15 -0 -7 5 0 -1 9 -1 -2 -1 -3 -1 -6 2 1 4 7 5 6 8 6 -17 13 0 -8 -5 1 -1 -1 3 -5 4 -3 2 2 9 3 -1 -1
2 5 11 -1 -1 -7 6 -0 1 10 2 -0 2 -1 -0 1 -2 -7 3 5 2 3 -2 15 15 -10 -5 12 13 4 2 9 5 -0 -4 -9 -6 -7 1 -3 1 -2 -1 1 -1
-6 -0 4 7 -5 -1 -3 -1 -1 4 11 2 -2 1 1 6 -10 -6 2 11 2 2 -0 11 -6 10 0 2 -24 -16 -6 2 6 13 -6 -3 7 -5 2 -4 6 -2 -6 -3 1
1 2 1 8 -3 -1 -3 2 -4 -2 7 -4 4 2 -4 2 -3 2 1 10 0 8 7 1 -11 -7 -10 8 28 -1 -3 3 -2 -8 14 -9 5 -12 2 -5 0 -3 3 -4 1
7 4 4 3 2 2 -3 4 4 2 1 -1 4 -2 1 -4 6 -2 10 11 7 8 1 -9 -9 -2 -2 -2 7 3 5 -1 -16 16 -38 18 -12 -5 3 -1 1 6 2 -1 -4
5 3 11 17 8 5 4 10 9 -2 4 10 7 -3 -11 -11 5 7 15 7 8 2 -0 -12 -8 1 -6 6 1 -7 1 2 -3 2 -14 -2 -15 6 6 1 0 11 -0 0 2
4 -1 3 10 11 1 10 10 7 12 4 9 -2 3 -4 10 -2 8 4 15 1 -4 3 -5 6 3 -17 5 9 6 -2 -5 -2 -5 7 -22 16 7 -2 2 7 8 -1 -0 7
Height
5887 5886 5885 5885 5885 5885 5886 5887 5888 5889 5891 5892 5892 5892 5892 5892 5893 5894 5895 5895 5896 5899 5901 5903 5905 5907 5909 5911 5912 5912 5911 5910 5910 5910 5909 5908 5908 5907 5908 5906 5908 5909 5909 5908 5910
5886 5884 5883 5883 5882 5882 5882 5883 5884 5885 5887 5889 5890 5891 5891 5891 5891 5892 5893 5893 5894 5897 5900 5903 5904 5906 5908 5911 5912 5914 5913 5912 5913 5911 5910 5910 5910 5910 5909 5907 5908 5909 5909 5909 5911
5884 5882 5881 5880 5879 5879 5879 5879 5879 5881 5883 5885 5887 5888 5889 5889 5889 5890 5892 5892 5893 5894 5898 5901 5903 5905 5906 5909 5911 5913 5913 5913 5913 5912 5911 5912 5911 5911 5910 5909 5909 5910 5910 5911 5912
5881 5880 5879 5878 5877 5876 5876 5876 5876 5877 5878 5880 5882 5884 5886 5887 5888 5888 5890 5891 5892 5894 5896 5900 5902 5905 5907 5909 5910 5911 5911 5913 5913 5912 5912 5912 5912 5912 5911 5911 5910 5911 5911 5911 5913
5878 5877 5876 5875 5874 5873 5873 5873 5873 5873 5874 5874 5877 5879 5882 5884 5883 5886 5887 5889 5891 5893 5896 5899 5901 5904 5907 5908 5909 5910 5911 5913 5913 5912 5912 5912 5912 5912 5911 5911 5911 5913 5913 5913 5914
5876 5875 5873 5872 5871 5870 5870 5871 5870 5870 5870 5870 5871 5873 5877 5877 5881 5881 5884 5886 5887 5890 5893 5896 5899 5902 5904 5906 5908 5910 5912 5913 5913 5912 5913 5913 5912 5911 5912 5913 5913 5914 5915 5915 5915
5872 5871 5870 5869 5868 5866 5866 5868 5866 5866 5866 5866 5866 5867 5870 5870 5875 5876 5880 5883 5885 5887 5890 5893 5896 5899 5903 5904 5907 5909 5911 5912 5912 5912 5913 5913 5912 5912 5912 5915 5915 5916 5916 5917 5917
5868 5868 5866 5865 5864 5862 5862 5863 5863 5862 5861 5861 5861 5863 5863 5867 5869 5871 5876 5878 5881 5883 5886 5888 5892 5896 5898 5903 5905 5909 5910 5911 5912 5912 5913 5914 5913 5913 5913 5914 5916 5917 5918 5919 5920
5863 5863 5862 5861 5860 5858 5857 5858 5858 5858 5858 5857 5857 5858 5858 5861 5863 5867 5870 5873 5875 5877 5878 5883 5886 5892 5896 5900 5903 5907 5909 5910 5912 5912 5912 5913 5913 5914 5913 5915 5916 5917 5918 5919 5920
5859 5858 5856 5856 5855 5854 5852 5852 5852 5853 5852 5853 5853 5854 5853 5855 5856 5859 5863 5867 5870 5871 5875 5877 5881 5887 5891 5897 5902 5907 5908 5909 5911 5912 5911 5910 5912 5913 5913 5914 5915 5916 5917 5919 5919
5852 5852 5850 5849 5849 5848 5847 5847 5848 5849 5847 5847 5848 5848 5846 5849 5850 5853 5855 5860 5863 5866 5870 5874 5878 5881 5889 5896 5903 5905 5906 5909 5910 5910 5909 5910 5911 5911 5913 5912 5915 5915 5916 5918 5918
5845 5844 5843 5842 5841 5841 5841 5840 5840 5841 5842 5840 5840 5843 5840 5843 5846 5846 5849 5852 5856 5861 5865 5868 5872 5881 5886 5890 5896 5901 5902 5905 5907 5907 5908 5907 5908 5910 5912 5913 5915 5917 5916 5917 5918
5836 5836 5835 5833 5833 5833 5832 5833 5832 5832 5834 5832 5832 5835 5836 5836 5839 5839 5843 5846 5850 5854 5859 5863 5872 5875 5878 5883 5890 5895 5899 5901 5906 5905 5904 5904 5905 5907 5909 5911 5914 5915 5916 5917 5917
5827 5826 5826 5824 5826 5823 5824 5824 5823 5824 5824 5828 5825 5826 5827 5829 5833 5829 5834 5837 5842 5847 5851 5856 5865 5867 5871 5875 5883 5891 5898 5900 5900 5902 5905 5904 5905 5904 5907 5909 5912 5914 5915 5915 5916
5816 5816 5817 5814 5814 5814 5815 5815 5815 5816 5815 5816 5817 5817 5820 5821 5825 5824 5825 5826 5832 5839 5842 5849 5857 5860 5862 5870 5878 5887 5891 5895 5896 5897 5897 5899 5900 5903 5902 5905 5909 5911 5913 5914 5914
5802 5801 5804 5804 5801 5801 5803 5804 5805 5807 5806 5805 5807 5808 5810 5812 5814 5815 5816 5820 5824 5829 5832 5839 5850 5851 5859 5867 5871 5877 5883 5886 5887 5888 5885 5894 5895 5900 5901 5906 5906 5907 5909 5910 5912
5787 5787 5788 5789 5790 5787 5789 5791 5793 5793 5798 5795 5797 5797 5800 5802 5803 5806 5808 5811 5815 5816 5819 5827 5836 5845 5851 5857 5862 5866 5871 5875 5877 5874 5878 5889 5889 5897 5899 5901 5904 5905 5904 5906 5906
5771 5771 5771 5773 5774 5772 5773 5777 5777 5782 5786 5785 5786 5788 5789 5792 5792 5795 5799 5801 5805 5808 5812 5819 5826 5832 5838 5845 5851 5856 5863 5863 5867 5870 5876 5881 5882 5893 5895 5896 5898 5899 5901 5901 5903
5753 5752 5753 5755 5755 5757 5757 5757 5764 5769 5773 5771 5774 5776 5777 5780 5784 5785 5790 5793 5795 5800 5804 5807 5814 5827 5832 5840 5845 5849 5850 5864 5866 5866 5870 5870 5877 5884 5888 5892 5894 5896 5898 5900 5900
5734 5734 5734 5735 5737 5738 5737 5742 5746 5754 5757 5757 5760 5762 5765 5769 5773 5775 5779 5784 5786 5790 5795 5799 5806 5817 5826 5832 5837 5840 5852 5853 5853 5856 5858 5861 5866 5875 5883 5888 5892 5893 5894 5896 5897
5709 5709 5712 5712 5714 5717 5717 5724 5732 5736 5740 5740 5745 5749 5752 5756 5760 5764 5768 5773 5777 5781 5785 5790 5796 5807 5812 5815 5825 5829 5834 5839 5847 5849 5852 5857 5858 5869 5876 5882 5886 5889 5890 5891 5892
5681 5684 5688 5691 5695 5696 5701 5708 5714 5720 5721 5723 5728 5734 5740 5744 5748 5751 5757 5761 5767 5772 5775 5780 5785 5791 5800 5808 5815 5821 5829 5836 5837 5841 5843 5848 5851 5861 5869 5874 5878 5881 5884 5886 5888
5654 5658 5662 5665 5670 5676 5682 5688 5693 5702 5705 5709 5712 5720 5727 5733 5735 5740 5746 5753 5756 5762 5767 5771 5772 5780 5788 5793 5797 5804 5815 5821 5828 5835 5831 5839 5845 5855 5864 5866 5872 5875 5877 5880 5883
5630 5632 5635 5639 5646 5653 5660 5668 5675 5681 5687 5691 5696 5703 5710 5718 5723 5730 5736 5746 5748 5754 5759 5761 5763 5769 5777 5789 5796 5794 5800 5807 5814 5817 5825 5824 5839 5844 5856 5860 5865 5869 5873 5874 5877
5601 5607 5612 5617 5621 5629 5637 5646 5653 5662 5669 5676 5680 5688 5697 5705 5713 5718 5727 5735 5740 5744 5748 5751 5757 5762 5768 5778 5782 5786 5791 5797 5800 5808 5811 5823 5828 5838 5847 5853 5859 5863 5865 5867 5870
5577 5580 5588 5596 5600 5607 5614 5625 5632 5640 5652 5658 5665 5672 5681 5690 5700 5707 5716 5725 5731 5736 5740 5744 5750 5755 5759 5766 5771 5775 5780 5785 5791 5798 5802 5813 5817 5830 5839 5844 5850 5856 5857 5860 5863
5560 5564 5569 5578 5581 5588 5596 5604 5613 5622 5633 5640 5648 5658 5670 5677 5685 5694 5702 5713 5718 5724 5730 5736 5742 5746 5749 5758 5761 5759 5768 5775 5783 5788 5795 5800 5811 5823 5828 5835 5842 5847 5849 5852 5856